Starlink 1269

operational
NORAD ID: 45197 Int'l Des: 2020-012 Owner: SPXS Country: US Constellation: starlink
LEOCIRCULARSTARLINK_TYPE

Über Starlink 1269

Beschreibung wird geladen...

Live-Position

3D-Globus wird geladen...

Nächste Überflüge

Höhenverlauf

Altitude vs Time

uPlot chart will show altitude changes over time

Zweizeiliger Elementsatz

1 45197U 20012V 25351.32973080 .00003656 00000-0 26411-3 0 9996
2 45197 53.0548 56.3469 0001213 80.7269 279.3857 15.06412953322391
Epoch: 17. Dez. 2025 • Age: 10 hours

Aktueller Status

Höhe 547.2 km
Geschwindigkeit 7.59 km/s
Subsatellitenpunkt 11.56°N, 133.98°W
Startdatum 17. Feb. 2020
Alter 5.8 years
Typ internet

Technische Details

Klassifizierung Payload
Masse 260.00 kg
Trockenmasse 248.00 kg
Gesamtmasse 260.00 kg
Länge 0.20 m
Durchmesser 2.80 m
Spannweite 9.00 m
Form Box + pan
Hersteller SPXS
Bus-Typ Starlink
Phasenstatus In Orbit
Besitzer/Staat SPXS/US

Große Konstellationen

Loading constellations...